Location: Evergreen Manor
(41.4083°N, 81.4939°W)
Time: 19:42:52
(UTC+00:00)

Helios 1A Rocket - Pass Details

Date: 11 December 2019
Orbit: 564 x 587 km, 98.3° (Epoch: 21 January)

Event Time Altitude Azimuth Distance (km) Brightness Sun altitude
Rises 11:38:21 0° 5° (N) 2,772 6.2 -11.6°
Reaches altitude 10° 11:40:35 10° 358° (N) 1,869 5.3 -11.2°
Maximum altitude 11:44:21 39° 289° (WNW) 855 3.3 -10.5°
Drops below altitude 10° 11:48:05 10° 220° (SW) 1,852 5.3 -9.9°
Sets 11:50:18 0° 213° (SSW) 2,745 6.3 -9.5°
